CEB5701 RPLC-RKSI

Flight info

Callsign CEB5701
Flight time N/A
Altitude 33000
Route RIANO5P RIANO TR25 CAB N884 LEBIX/N0469F350 N884 ALBAX Y531 YURIX Y27 RUSAR Y579 RUGMA Z85 BILUM DCT MELES/N0461F360 DCT OLMEN OLMEN1Y
Aircraft A320/M-SDE3FGHIRWY/LB1

Departure

Time 2026-04-22 10:59
Airport Clark International Airport / Clark Air Base (RPLC)

Arrival

Time N/A
Airport Incheon International Airport (RKSI)
Time Latitude Longitude Altitude Speed Heading
2026-04-22 10:31 15.19418 120.55962 472 ft 0 kts 291°
2026-04-22 10:42 15.19414 120.55976 472 ft 2 kts 288°
2026-04-22 10:42 15.19406 120.55995 472 ft 2 kts 290°
2026-04-22 10:42 15.19403 120.56005 472 ft 2 kts 291°
2026-04-22 10:42 15.19397 120.56020 472 ft 2 kts 291°
2026-04-22 10:43 15.19387 120.56035 472 ft 2 kts 342°
2026-04-22 10:43 15.19377 120.56036 472 ft 2 kts 17°
2026-04-22 10:43 15.19363 120.56029 472 ft 2 kts 20°
2026-04-22 10:43 15.19350 120.56024 472 ft 1 kts 21°
2026-04-22 10:44 15.19348 120.56024 472 ft 0 kts 21°
2026-04-22 10:47 15.19353 120.56026 472 ft 1 kts 21°
2026-04-22 10:47 15.19361 120.56029 472 ft 2 kts 21°
2026-04-22 10:48 15.19383 120.56037 472 ft 3 kts 20°
2026-04-22 10:48 15.19415 120.56050 472 ft 5 kts 21°
2026-04-22 10:48 15.19473 120.56075 472 ft 6 kts 44°
2026-04-22 10:48 15.19472 120.56104 472 ft 6 kts 108°
2026-04-22 10:49 15.19452 120.56161 471 ft 6 kts 111°
2026-04-22 10:49 15.19440 120.56192 471 ft 7 kts 111°
2026-04-22 10:49 15.19419 120.56252 471 ft 5 kts 92°
2026-04-22 10:49 15.19434 120.56275 471 ft 6 kts 34°
2026-04-22 10:50 15.19473 120.56291 471 ft 6 kts 20°
2026-04-22 10:50 15.19516 120.56308 471 ft 7 kts 20°
2026-04-22 10:50 15.19567 120.56328 471 ft 8 kts 21°
2026-04-22 10:50 15.19625 120.56351 471 ft 9 kts 21°
2026-04-22 10:51 15.19710 120.56386 472 ft 10 kts 21°
2026-04-22 10:51 15.19758 120.56405 471 ft 11 kts 21°
2026-04-22 10:51 15.19833 120.56434 472 ft 11 kts 21°
2026-04-22 10:51 15.19904 120.56462 472 ft 10 kts 21°
2026-04-22 10:52 15.19974 120.56490 472 ft 11 kts 21°
2026-04-22 10:52 15.20049 120.56519 472 ft 11 kts 21°
2026-04-22 10:52 15.20126 120.56555 472 ft 12 kts 42°
2026-04-22 10:52 15.20143 120.56636 472 ft 11 kts 81°
2026-04-22 10:53 15.20156 120.56717 472 ft 9 kts 82°
2026-04-22 10:53 15.20157 120.56730 472 ft 0 kts 84°
2026-04-22 10:56 15.20157 120.56733 472 ft 1 kts 84°
2026-04-22 10:56 15.20159 120.56754 472 ft 3 kts 91°
2026-04-22 10:56 15.20149 120.56789 472 ft 6 kts 110°
2026-04-22 10:57 15.20127 120.56841 471 ft 8 kts 138°
2026-04-22 10:57 15.20084 120.56835 471 ft 0 kts 203°
2026-04-22 10:58 15.20080 120.56833 471 ft 7 kts 203°
2026-04-22 10:58 15.19821 120.56728 471 ft 71 kts 200°
2026-04-22 10:58 15.19169 120.56470 471 ft 125 kts 199°
2026-04-22 10:59 15.18207 120.56095 543 ft 160 kts 199°
2026-04-22 10:59 15.17206 120.55711 1146 ft 149 kts 199°
2026-04-22 10:59 15.16255 120.55358 1667 ft 144 kts 199°
2026-04-22 10:59 15.15308 120.54984 2041 ft 148 kts 201°
2026-04-22 11:00 15.14327 120.54578 2412 ft 151 kts 201°
2026-04-22 11:00 15.13341 120.54176 2779 ft 153 kts 201°
2026-04-22 11:00 15.12328 120.53812 3146 ft 155 kts 187°
2026-04-22 11:00 15.11280 120.54080 3367 ft 164 kts 136°
2026-04-22 11:01 15.10733 120.55122 3612 ft 173 kts 91°
2026-04-22 11:01 15.11092 120.56323 3871 ft 182 kts 47°
2026-04-22 11:01 15.12072 120.57233 4163 ft 196 kts 41°
2026-04-22 11:01 15.13126 120.58227 4448 ft 211 kts 43°
2026-04-22 11:02 15.14235 120.59314 4732 ft 227 kts 43°
2026-04-22 11:02 15.15424 120.60490 4927 ft 249 kts 43°
2026-04-22 11:02 15.16664 120.61721 5377 ft 258 kts 43°
2026-04-22 11:02 15.17971 120.63025 6034 ft 260 kts 43°
2026-04-22 11:03 15.19265 120.64309 6762 ft 258 kts 43°
2026-04-22 11:03 15.20569 120.65601 7461 ft 258 kts 44°
2026-04-22 11:03 15.21856 120.66879 8179 ft 258 kts 44°
2026-04-22 11:03 15.23153 120.68168 8868 ft 258 kts 44°
2026-04-22 11:04 15.24414 120.69508 9495 ft 262 kts 48°
2026-04-22 11:04 15.25670 120.70940 9819 ft 276 kts 48°
2026-04-22 11:04 15.26985 120.72455 10199 ft 287 kts 48°
2026-04-22 11:04 15.28342 120.74017 10531 ft 301 kts 48°
2026-04-22 11:05 15.29813 120.75705 10826 ft 317 kts 48°
2026-04-22 11:05 15.31311 120.77425 11077 ft 331 kts 48°
2026-04-22 11:05 15.32901 120.79248 11303 ft 344 kts 48°
2026-04-22 11:05 15.34488 120.81148 11522 ft 357 kts 51°
2026-04-22 11:06 15.36030 120.83257 11732 ft 370 kts 55°
2026-04-22 11:06 15.37483 120.85491 12013 ft 378 kts 56°
2026-04-22 11:06 15.38978 120.87843 12461 ft 382 kts 57°
2026-04-22 11:06 15.40424 120.90126 12906 ft 384 kts 57°
2026-04-22 11:07 15.41904 120.92461 13319 ft 386 kts 56°
2026-04-22 11:07 15.43390 120.94803 13719 ft 389 kts 56°
2026-04-22 11:07 15.44890 120.97163 14097 ft 392 kts 56°
2026-04-22 11:07 15.46400 120.99523 14463 ft 395 kts 54°
2026-04-22 11:08 15.48229 121.01705 14808 ft 398 kts 43°
2026-04-22 11:08 15.50428 121.03447 15150 ft 401 kts 31°
2026-04-22 11:08 15.52894 121.04791 15503 ft 403 kts 26°
2026-04-22 11:08 15.55451 121.06055 15840 ft 406 kts 25°
2026-04-22 11:09 15.58039 121.07319 16173 ft 408 kts 25°
2026-04-22 11:09 15.60620 121.08583 16496 ft 411 kts 25°
2026-04-22 11:09 15.63244 121.09874 16812 ft 413 kts 25°
2026-04-22 11:09 15.65889 121.11179 17110 ft 416 kts 25°
2026-04-22 11:10 15.68500 121.12471 17389 ft 418 kts 25°
2026-04-22 11:10 15.71181 121.13800 17668 ft 421 kts 25°
2026-04-22 11:10 15.73850 121.15124 17941 ft 423 kts 25°
2026-04-22 11:10 15.76516 121.16447 18210 ft 426 kts 25°
2026-04-22 11:11 15.79223 121.17791 18481 ft 428 kts 25°
2026-04-22 11:11 15.81943 121.19143 18755 ft 430 kts 25°
2026-04-22 11:11 15.84646 121.20486 19007 ft 432 kts 25°
2026-04-22 11:11 15.87392 121.21853 19216 ft 435 kts 25°
2026-04-22 11:12 15.90156 121.23228 19396 ft 439 kts 25°
2026-04-22 11:12 15.92924 121.24606 19621 ft 441 kts 24°
2026-04-22 11:12 15.95720 121.25998 19851 ft 443 kts 24°
2026-04-22 11:12 15.98540 121.27402 20085 ft 445 kts 24°
2026-04-22 11:13 16.01215 121.28735 20303 ft 446 kts 24°
2026-04-22 11:13 16.04119 121.30183 20531 ft 448 kts 24°
2026-04-22 11:13 16.06957 121.31597 20749 ft 449 kts 24°
2026-04-22 11:13 16.09810 121.33019 20961 ft 451 kts 24°
2026-04-22 11:14 16.12614 121.34418 21157 ft 452 kts 24°
2026-04-22 11:14 16.15531 121.35873 21352 ft 454 kts 24°
2026-04-22 11:14 16.19404 121.37806 21617 ft 456 kts 24°
2026-04-22 11:14 16.21318 121.38762 21744 ft 457 kts 24°
2026-04-22 11:15 16.24205 121.40204 21930 ft 459 kts 24°
2026-04-22 11:15 16.27085 121.41643 22108 ft 460 kts 24°
2026-04-22 11:15 16.29721 121.42960 22267 ft 462 kts 24°
2026-04-22 11:15 16.32698 121.44449 22458 ft 463 kts 24°
2026-04-22 11:16 16.35613 121.45906 22657 ft 464 kts 24°
2026-04-22 11:16 16.38525 121.47363 22854 ft 465 kts 24°
2026-04-22 11:16 16.41475 121.48840 23046 ft 466 kts 24°
2026-04-22 11:16 16.44419 121.50313 23232 ft 468 kts 24°
2026-04-22 11:17 16.47392 121.51801 23417 ft 469 kts 24°
2026-04-22 11:17 16.50345 121.53280 23607 ft 470 kts 24°
2026-04-22 11:17 16.53305 121.54763 23795 ft 471 kts 24°
2026-04-22 11:17 16.56301 121.56266 23981 ft 472 kts 24°
2026-04-22 11:18 16.59248 121.57744 24158 ft 473 kts 24°
2026-04-22 11:18 16.62232 121.59242 24333 ft 474 kts 24°
2026-04-22 11:18 16.65241 121.60751 24510 ft 475 kts 24°
2026-04-22 11:18 16.68250 121.62263 24683 ft 476 kts 24°
2026-04-22 11:19 16.71269 121.63779 24848 ft 477 kts 24°
2026-04-22 11:19 16.74274 121.65289 25008 ft 478 kts 24°
2026-04-22 11:19 16.78281 121.67304 25205 ft 479 kts 24°
2026-04-22 11:19 16.80280 121.68309 25299 ft 480 kts 24°
2026-04-22 11:20 16.83298 121.69829 25431 ft 481 kts 24°
2026-04-22 11:20 16.86341 121.71361 25561 ft 482 kts 24°
2026-04-22 11:20 16.89373 121.72888 25686 ft 483 kts 24°
2026-04-22 11:20 16.92420 121.74423 25816 ft 484 kts 24°
2026-04-22 11:21 16.95479 121.75992 25947 ft 485 kts 25°
2026-04-22 11:21 16.98470 121.77573 26115 ft 485 kts 26°
2026-04-22 11:21 17.01534 121.79207 26316 ft 484 kts 26°
2026-04-22 11:21 17.04538 121.80810 26513 ft 483 kts 26°
2026-04-22 11:22 17.07513 121.82398 26711 ft 482 kts 26°
2026-04-22 11:22 17.10517 121.83999 26908 ft 482 kts 25°
2026-04-22 11:22 17.13437 121.85555 27117 ft 481 kts 25°
2026-04-22 11:22 17.16443 121.87153 27332 ft 480 kts 25°
2026-04-22 11:23 17.19422 121.88738 27546 ft 479 kts 25°
2026-04-22 11:23 17.22448 121.90348 27764 ft 478 kts 25°
2026-04-22 11:23 17.25286 121.91860 27964 ft 478 kts 25°
2026-04-22 11:23 17.28256 121.93441 28168 ft 477 kts 25°
2026-04-22 11:24 17.31254 121.95039 28382 ft 477 kts 25°
2026-04-22 11:24 17.34192 121.96606 28587 ft 477 kts 25°
2026-04-22 11:24 17.37188 121.98202 28805 ft 476 kts 25°
2026-04-22 11:24 17.40134 121.99774 29037 ft 476 kts 25°
2026-04-22 11:25 17.43053 122.01332 29287 ft 474 kts 25°
2026-04-22 11:25 17.46011 122.02911 29549 ft 473 kts 25°
2026-04-22 11:25 17.48960 122.04488 29801 ft 472 kts 25°
2026-04-22 11:25 17.51910 122.06064 30052 ft 471 kts 25°
2026-04-22 11:26 17.54817 122.07617 30292 ft 470 kts 25°
2026-04-22 11:26 17.57769 122.09195 30537 ft 469 kts 25°
2026-04-22 11:26 17.60670 122.10746 30783 ft 468 kts 25°
2026-04-22 11:26 17.63570 122.12298 31030 ft 467 kts 25°
2026-04-22 11:27 17.66497 122.13865 31254 ft 467 kts 25°
2026-04-22 11:27 17.69415 122.15427 31441 ft 467 kts 25°
2026-04-22 11:27 17.72324 122.16985 31606 ft 467 kts 25°
2026-04-22 11:27 17.75227 122.18542 31776 ft 468 kts 25°
2026-04-22 11:28 17.78153 122.20110 31951 ft 468 kts 25°
2026-04-22 11:28 17.81093 122.21687 32121 ft 468 kts 25°
2026-04-22 11:28 17.84016 122.23254 32289 ft 468 kts 25°
2026-04-22 11:28 17.86951 122.24791 32492 ft 467 kts 25°
2026-04-22 11:29 17.89851 122.26289 32629 ft 467 kts 24°
2026-04-22 11:29 17.95751 122.29346 32869 ft 469 kts 25°
2026-04-22 11:30 18.01650 122.32413 32907 ft 470 kts 25°
2026-04-22 11:30 18.07515 122.35440 32911 ft 470 kts 24°
2026-04-22 11:31 18.13298 122.38452 32919 ft 469 kts 24°
2026-04-22 11:31 18.19206 122.41544 32915 ft 470 kts 24°
2026-04-22 11:32 18.25085 122.44617 32912 ft 471 kts 24°
2026-04-22 11:32 18.29607 122.46980 32910 ft 471 kts 24°
2026-04-22 11:33 18.36716 122.50699 32901 ft 471 kts 24°
2026-04-22 11:33 18.42651 122.53803 32899 ft 470 kts 24°
2026-04-22 11:34 18.48573 122.56902 32897 ft 470 kts 24°
2026-04-22 11:34 18.54444 122.59977 32896 ft 470 kts 24°
2026-04-22 11:35 18.60353 122.63074 32899 ft 471 kts 24°
2026-04-22 11:35 18.66244 122.66164 32899 ft 472 kts 24°
2026-04-22 11:36 18.72149 122.69263 32908 ft 472 kts 24°
2026-04-22 11:36 18.78054 122.72366 32906 ft 472 kts 24°
2026-04-22 11:37 18.83981 122.75481 32912 ft 471 kts 24°
2026-04-22 11:37 18.89856 122.78572 32911 ft 471 kts 24°
2026-04-22 11:38 18.95754 122.81677 32908 ft 471 kts 24°
2026-04-22 11:38 19.04601 122.86341 32911 ft 471 kts 24°
2026-04-22 11:39 19.10542 122.89476 32906 ft 472 kts 24°
2026-04-22 11:39 19.16442 122.92591 32902 ft 472 kts 24°
2026-04-22 11:40 19.22365 122.95721 32898 ft 472 kts 24°
2026-04-22 11:40 19.28278 122.98849 32903 ft 472 kts 24°
2026-04-22 11:41 19.34191 123.01978 32901 ft 472 kts 24°
2026-04-22 11:41 19.40033 123.05074 32902 ft 472 kts 24°
2026-04-22 11:42 19.45707 123.08080 32902 ft 472 kts 24°
2026-04-22 11:42 19.51622 123.11219 32901 ft 472 kts 24°
2026-04-22 11:43 19.57367 123.14271 32904 ft 473 kts 24°
2026-04-22 11:43 19.63225 123.17384 32902 ft 473 kts 24°
2026-04-22 11:44 19.68895 123.20400 32903 ft 473 kts 24°
2026-04-22 11:44 19.74711 123.23496 32902 ft 472 kts 24°
2026-04-22 11:45 19.80586 123.26626 32904 ft 472 kts 24°
2026-04-22 11:45 19.86478 123.29768 32901 ft 473 kts 24°
2026-04-22 11:46 19.92366 123.32909 32903 ft 474 kts 24°
2026-04-22 11:46 19.98265 123.36062 32900 ft 474 kts 24°
2026-04-22 11:47 20.04190 123.39230 32899 ft 474 kts 24°
2026-04-22 11:47 20.10081 123.42381 32897 ft 474 kts 24°
2026-04-22 11:48 20.15981 123.45539 32897 ft 473 kts 24°
2026-04-22 11:48 20.21903 123.48712 32988 ft 475 kts 24°
2026-04-22 11:49 20.24881 123.50311 33212 ft 474 kts 24°
2026-04-22 11:49 20.27811 123.51882 33458 ft 472 kts 23°
2026-04-22 11:49 20.30749 123.53460 33680 ft 471 kts 23°
2026-04-22 11:49 20.33676 123.55032 33867 ft 470 kts 23°
2026-04-22 11:50 20.36596 123.56601 34053 ft 470 kts 23°
2026-04-22 11:50 20.39542 123.58185 34234 ft 469 kts 23°
2026-04-22 11:50 20.42448 123.59747 34409 ft 469 kts 23°
2026-04-22 11:50 20.45380 123.61324 34586 ft 468 kts 23°
2026-04-22 11:51 20.48268 123.62878 34785 ft 467 kts 23°
2026-04-22 11:51 20.51179 123.64445 34902 ft 467 kts 23°
2026-04-22 11:51 20.56987 123.67572 34908 ft 466 kts 23°
2026-04-22 11:52 20.62807 123.70710 34913 ft 467 kts 23°
2026-04-22 11:52 20.68638 123.73857 34912 ft 467 kts 23°
2026-04-22 11:53 20.74463 123.77002 34908 ft 467 kts 23°
2026-04-22 11:53 20.80274 123.80145 34905 ft 466 kts 23°
2026-04-22 11:54 20.86103 123.83298 34904 ft 466 kts 23°
2026-04-22 11:54 20.91921 123.86451 34902 ft 467 kts 23°
2026-04-22 11:55 20.97761 123.89616 34903 ft 468 kts 23°
2026-04-22 11:55 21.03572 123.92763 34903 ft 468 kts 23°
2026-04-22 11:56 21.09392 123.95908 34899 ft 468 kts 23°
2026-04-22 11:56 21.15222 123.99062 34902 ft 467 kts 23°
2026-04-22 11:57 21.21037 124.02213 34901 ft 467 kts 23°
2026-04-22 11:57 21.26861 124.05372 34900 ft 467 kts 23°
2026-04-22 11:58 21.32355 124.08353 34900 ft 468 kts 23°
2026-04-22 11:58 21.38198 124.11528 34902 ft 468 kts 23°
2026-04-22 11:59 21.44027 124.14701 34902 ft 468 kts 23°
2026-04-22 11:59 21.49867 124.17880 34906 ft 468 kts 22°
2026-04-22 12:00 21.55692 124.21055 34904 ft 468 kts 22°
2026-04-22 12:00 21.61497 124.24219 34904 ft 468 kts 22°
2026-04-22 12:01 21.67346 124.27410 34904 ft 469 kts 23°
2026-04-22 12:01 21.73199 124.30608 34901 ft 470 kts 22°
2026-04-22 12:02 21.79090 124.33830 34896 ft 469 kts 22°
2026-04-22 12:02 21.84886 124.37004 34898 ft 469 kts 22°
2026-04-22 12:03 21.90327 124.39984 34904 ft 470 kts 22°
2026-04-22 12:04 22.01527 124.46129 34914 ft 471 kts 22°